Regional Weather Roundup
Issued by NWS Upton, NY

Current Version | Previous Version | Text Only | Print | Product List | Glossary On
Versions: 1 2 3 4 5 6 7 8 9 10 11 12 13 14 15 16 17 18 19 20 21 22 23 24 25 26 27 28
000 ASUS41 KOKX 071008 RWROKX REGIONAL WEATHER ROUNDUP NATIONAL WEATHER SERVICE NEW YORK NY 500 AM EST WED DEC 07 2016 NOTE: "FAIR" INDICATES FEW OR NO CLOUDS BELOW 12,000 FEET WITH NO SIGNIFICANT WEATHER AND/OR OBSTRUCTIONS TO VISIBILITY. NYZ071-072-176-178-NJZ106-104-071100- NEW YORK CITY METRO AREA CITY SKY/WX TMP DP RH WIND PRES REMARKS Central Park CLOUDY 40 37 89 VRB7 29.92S Wall St Helipt CLOUDY 43 41 93 NE13 29.90S Bronx Bot Gard NOT AVBL LaGuardia APRT CLOUDY 41 38 89 NE10 29.90S FOG Kennedy INTL CLOUDY 43 39 86 N9 29.90S Breezy Point N/A 41 N/A N/A NE9 N/A Newark/Liberty CLOUDY 39 37 92 N13 29.90S WCI 31 Teterboro DRIZZLE 39 36 89 N7 29.90F FOG WCI 34 $$ NYZ177-179-078>081-071100- LONG ISLAND NEW YORK CITY SKY/WX TMP DP RH WIND PRES REMARKS Jones Beach N/A 41 N/A N/A N15 N/A Matinecock PT NOT AVBL Farmingdale CLOUDY 41 40 96 NE10 29.89S MacArthur/ISP CLOUDY 41 40 96 N9 29.89R Shirley LGT RAIN 41 40 96 N5 29.90R FOG Westhampton LGT RAIN 41 39 93 NE13 29.90R FOG Southampton NOT AVBL Bridgehampton NOT AVBL East Hampton DRIZZLE 40 39 94 NE9 29.88S WCI 34 Montauk N/A 42 40 92 NE10G18 29.92R $$ NYZ052-065-067-071100- HUDSON VALLEY CITY SKY/WX TMP DP RH WIND PRES REMARKS White Plains MOCLDY 37 35 92 N6 29.89S WCI 32 Newburgh CLOUDY 34 34 100 NE7 29.92S FOG WCI 28 Montgomery CLOUDY 34 33 96 NE6 29.90F FOG WCI 29 Poughkeepsie CLOUDY 33 32 96 NE3 29.92S FOG Albany LGT SNOW 33 31 92 CALM 29.93F FOG $$ NJZ001-105-106-008-010-013-015-019>022-104-071100- NEW JERSEY CITY SKY/WX TMP DP RH WIND PRES REMARKS Newark/Liberty CLOUDY 39 37 92 N13 29.90S WCI 31 Teterboro DRIZZLE 39 36 89 N7 29.90F FOG WCI 34 Caldwell CLOUDY 38 36 92 NE5 29.91S WCI 34 Somerville CLOUDY 39 36 89 N5 29.90R Linden CLOUDY 39 37 93 NE6 29.91R WCI 35 Sussex CLOUDY 34 34 100 CALM 29.91R Andover N/A 33 33 100 NE6 29.91R WCI 28 Trenton CLOUDY 39 37 92 N7 29.90R WCI 34 Millville LGT RAIN 43 43 100 NW7 29.88R FOG Atlantic City LGT RAIN 47 44 90 NW9 29.87R FOG Wrightstown CLOUDY 42 41 97 NW7 29.87R Toms River LGT RAIN 45 44 97 N6 29.89R Belmar CLOUDY 42 41 96 N8G18 29.88R $$ PAZ047>061-062-071-071100- EASTERN PENNSYLVANIA CITY SKY/WX TMP DP RH WIND PRES REMARKS Philadelphia CLOUDY 41 39 93 N8 29.91R FOG Allentown CLOUDY 38 35 89 W3 29.92R Scranton LGT RAIN 35 34 96 CALM 29.90R FOG $$ CTZ002-004>006-009-010-012-RIZ004-006-007-MAZ004-011-015-071100- SOUTHERN NEW ENGLAND IN CT CITY SKY/WX TMP DP RH WIND PRES REMARKS Bradley INTL LGT RAIN 34 32 92 N6 29.94R FOG WCI 29 Hartford LGT RAIN 35 34 96 NW7 29.94R FOG WCI 29 Danbury LGT RAIN 34 33 96 CALM 29.93R FOG Wtrbury/Oxford CLOUDY 34 30 86 NE6 29.91S WCI 29 Bridgeport NOT AVBL Meriden LGT RAIN 37 34 89 CALM 29.93R FOG New Haven CLOUDY 37 35 92 N7 29.92R FOG WCI 32 Chester LGT RAIN 36 36 100 N5 29.91R WCI 32 Groton LGT RAIN 41 38 89 NE12 29.91R FOG Wilimantic LGT RAIN 37 36 96 CALM 29.93R FOG IN RI CITY SKY/WX TMP DP RH WIND PRES REMARKS Providence LGT RAIN 37 34 89 NE9 29.91R WCI 30 Block Island RAIN 41 39 93 NE14G20 29.90R Westerly RAIN 38 35 89 N6 29.92R FOG WCI 33 IN MA CITY SKY/WX TMP DP RH WIND PRES REMARKS Boston LGT RAIN 40 36 86 E13 29.93R WCI 32 Worcester MIX PCPN 32 30 92 NE5 29.89R VSB 1/2 WCI 27 Westfield LGT RAIN 33 33 100 N5 29.94R FOG WCI 29 Provincetown CLOUDY 40 35 83 E10 29.91F WCI 33 Nantucket CLOUDY 42 35 76 NE13G22 29.85F $$ ANZ330-335-338-340-345-350-353-355-071100- COASTAL MARINE OBSERVATIONS STATION/POSITION TIME SKY/WX TEMP WIND PRES VSBY WAVE AIR SEA DIR/SP/G HT/PER (UTC) (F) (DEG/KT/KT) (MB) (MI) (FT/S) NY HARB ENTRANCE 0950 44 53 30/ 17/ 19 1011.0 7/ 7 20 S FIRE ISLAND 0950 47 54 50/ 17/ 21 1010.3 9/ 8 GREAT SOUTH BAY 0915 42 43 N/A 23 SSW MONTAUK P 0950 45 54 80/ 19/ 23 1011.1 7/ 6 15 E BARNEGAT LI 0930 54 N/A 10/ 8 HUDSON CANYON 0850 52 58 1005.5 10/ 8 KINGS POINT 0930 40 48 1012.3 EXECUTION ROCKS 0945 41 20/ 10/ 14 N/A CENTRAL LI SOUND 0945 41 50 50/ 14/ 17 N/A 3/ 4 EASTERN LI SOUND NOT AVBL ROBBINS REEF 0930 40 360/ 11/ 12 1012.3 $$ >>>>>>>>>>>>>>>>>>>>>>>>>>>> KEY <<<<<<<<<<<<<<<<<<<<<<<<<<< > < > SKY/WX - Sky Condition/Present Weather < > TMP - Temperature in Fahrenheit < > DP - Dew Point in Fahrenheit < > RH - Relative Humidity in Percent < > WIND - Direction (from) and Speed in MPH < > PRES - Mean Sea Level Pressure (inches of Hg) < > WCI - Wind Chill Index < > VSB - VISIBILITY IN MILES < > HX - HEAT INDEX < > TC - TEMPERATURE IN CELSIUS < > VRB - VARIABLE WIND DIRECTION < > < >>>>>>>>>>>>>>>>>>>>>>>>>>>> KEY <<<<<<<<<<<<<<<<<<<<<<<<<<<

USA.gov is the U.S. government's official web portal to all federal, state and local government web resources and services.